www.pogodaiklimat.ru

Погода и климат >> Архив погоды >> Россия >> Нижегородская область >> Нижний Новгород аэропорт


ПОГОДА в Нижнем Новгороде аэропорт

  • Прогноз погоды в Нижнем Новгороде аэропорт
  • Монитор погоды в Нижнем Новгороде аэропорт

АРХИВ ПОГОДЫ в Нижнем Новгороде аэропорт

Время (UTC), дата Ветер
(напр.,м/с)
 
Видим.   Явления Облачность Т
(С)
Тd
(С)
f
(%)
Тe
(С)
Тes
(С)
Комфортность P
(гПа)
Po
(гПа)
Тmin
(С)
Tmax
(С)
R
(мм)
R24
(мм)
S
(см)
18 14.05 С 1-2
{6}
10 км 8/3 600 м
[Sc Ac trans]
+19.6 +15.3 76 +23 +23 комфорт 1014.2 1005.1
21 14.05 1-2
{4}
10 км 8/3 600 м
[Sc Ac trans]
+17.2 +15.2 88 +18 +18 1013.9 1004.8
00 15.05 СЗ 1-1
{4}
9000 м 6/3 600 м
[Sc Ac trans]
+14.8 +14.0 95 +15 +15 1014.3 1005.1
03 15.05 З 2-3
{3}
5000 м дымка 5/3 100 м
[St Ci fib]
+15.4 +14.8 96 +15 +16 1014.5 1005.3 +13.7
06 15.05 С 3-4
{5}
10 км 5/0
[Ci fib]
+21.2 +14.4 65 +24 +31 комфорт 1014.9 1005.9
09 15.05 2-4
{6}
10 км 4/1 1000 м
[Cu hum Ci fib]
+24.2 +14.3 54 +27 +39 жарко 1014.7 1005.8
12 15.05 С 5-8
{8}
10 км 8/3 600 м
[Cu hum Ci fib]
+24.8 +14.6 53 +27 +31 жарко 1014.0 1005.1
15 15.05 СЗ 5-7
{9}
10 км 10/5 300 м
[Cu med, cong Ac trans Cs]
+21.8 +14.7 64 +25 +25 комфорт 1015.3 1006.3 +25.9
18 15.05 СЗ 2-3
{6}
10 км гроза без осадков 10/6 570 м
[Cb cap Ac trans Cs]
+19.5 +13.7 69 +22 +22 комфорт 1015.6 1006.5
21 15.05 С 3-4
{10}
10 км {гроза} 10/3 600 м
[Sc Cs]
+16.1 +13.2 83 +16 +16 1015.8 1006.6
00 16.05 С 3-4
{6}
10 км в посл. час дождь {гроза} 10/10 330 м
[Sc]
+15.8 +13.5 86 +15 +15 1015.7 1006.5
03 16.05 С 5-7
{7}
10 км слаб. дождь 10/10 420 м
[Sc]
+15.1 +13.3 89 +14 +14 1016.1 1006.9 +15.1 0.0
06 16.05 С 6-8
{11}
10 км {дождь} 10/10 450 м
[Sc]
+15.2 +11.0 76 +14 +14 1017.6 1008.4 +14.1
09 16.05 СЗ 6-9
{10}
10 км 9/4 1000 м
[Cu hum Ac trans Ci fib]
+18.1 +9.2 56 +18 +20 1018.5 1009.3
12 16.05 С 8-10
{11}
10 км 1/0
[Ci fib]
+18.1 +3.6 38 +17 +19 1019.2 1010.0
15 16.05 СЗ 6-9
{11}
10 км 3/0
[Ci fib]
+16.7 +2.3 38 +16 +16 1019.9 1010.7 +19.1
18 16.05 СЗ 4-6
{10}
10 км 5/0
[Ci fib]
+12.1 +1.7 49 +10 +10 1021.4 1012.0
21 16.05 С 4-5
{8}
10 км 5/0
[Ci fib]
+9.1 +0.3 54 +7 +7 1022.8 1013.3
00 17.05 СЗ 1-2
{5}
10 км 3/0
[Ci fib]
+4.7 +1.2 78 +4 +4 1023.7 1014.1
03 17.05 СЗ 1-2
{3}
10 км ясно +7.1 +1.6 68 +6 +8 1024.7 1015.1 +3.4
06 17.05 С 4-8
{8}
10 км 5/4 1000 м
[Cu hum Ci fib]
+12.8 -1.5 37 +11 +15 1024.3 1014.9
09 17.05 С 5-8
{12}
10 км 4/3 1000 м
[Cu hum Ci fib]
+15.0 -1.5 32 +14 +19 1022.9 1013.6
12 17.05 З 5-8
{9}
10 км 3/0
[Ci fib]
+16.8 -1.8 28 +16 +21 1020.6 1011.4
15 17.05 СЗ 5-7
{10}
10 км 3/0
[Ci fib]
+16.8 -1.3 29 +16 +17 1019.3 1010.1 +17.6
18 17.05 З 3-4
{9}
10 км 3/0
[Ac trans]
+10.9 +1.2 51 +9 +9 1018.5 1009.1
21 17.05 З 3-5
{5}
10 км 3/0
[Ac trans]
+10.3 +2.2 57 +9 +9 1017.4 1008.0
00 18.05 З 4-5
{6}
10 км 6/0
[Ac trans]
+9.8 +2.7 61 +7 +7 1016.3 1006.9
03 18.05 СЗ 3-5
{9}
10 км 4/0
[Ac trans]
+11.2 +4.0 61 +10 +11 1016.4 1007.0 +8.7
06 18.05 С 8-10
{11}
10 км 3/0
[Ci fib]
+13.7 +1.1 42 +11 +13 1016.3 1007.0
09 18.05 СЗ 6-10
{13}
10 км 4/1 600 м
[Cu hum Ci fib]
+15.3 -1.7 31 +14 +19 1015.8 1006.6
12 18.05 СЗ 6-9
{12}
10 км 4/1 600 м
[Cu hum Ci fib]
+17.0 +0.2 32 +16 +19 1014.5 1005.3
15 18.05 С 6-10
{12}
10 км 6/3 600 м
[Cu hum Ac trans]
+15.8 -0.4 33 +15 +15 1013.9 1004.7 +17.8
18 18.05 СЗ 1-2
{10}
10 км 8/5 600 м
[Sc Ac trans]
+11.5 +2.5 54 +12 +12 1013.5 1004.2
21 18.05 С 6-8
{10}
10 км 9/5 600 м
[Sc Ac trans]
+10.2 +5.0 70 +7 +7 1014.1 1004.7
00 19.05 С 3-4
{9}
10 км {дождь} 8/3 600 м
[Sc Ac trans]
+5.3 +1.1 74 +2 +2 1015.4 1005.8
03 19.05 С 4-5
{5}
10 км 4/3 600 м
[Sc Ac trans]
+7.3 +1.0 64 +4 +5 1015.6 1006.1 +4.2 0.0
06 19.05 СЗ 6-9
{10}
10 км 8/8 1200 м
[Sc]
+9.3 -1.7 46 +6 +7 1015.7 1006.3
09 19.05 С 7-12
{14}
10 км 8/8 1200 м
[Sc]
+10.4 -1.9 42 +7 +8 1015.9 1006.5
12 19.05 С 7-12
{14}
10 км 4/4 1000 м
[Cu hum]
+12.6 -2.4 35 +10 +12 1016.5 1007.2
15 19.05 С 5-7
{12}
10 км 6/4 1000 м
[Sc Ac trans]
+12.1 -1.8 38 +10 +11 1017.5 1008.2 +13.1
18 19.05 СВ 3-4
{9}
10 км 6/0
[Ac trans]
+8.7 -1.1 50 +7 +7 1019.1 1009.6
21 19.05 штиль 0-1
{4}
10 км 3/0
[Ac trans]
+2.8 0.0 82 +2 +2 1019.9 1010.2
00 20.05 З 2-3
{7}
10 км ясно +2.3 +0.4 87 -1 -1 1020.3 1010.6
03 20.05 СЗ 2-3
{6}
10 км 3/0
[Ac trans]
+6.0 +0.6 68 +4 +5 1021.4 1011.8 +1.7
06 20.05 СЗ 4-8
{8}
10 км 6/3 1000 м
[Cu hum Ac trans Cc]
+12.3 +0.1 43 +11 +14 1021.2 1011.8
09 20.05 С 6-9
{11}
10 км 9/8 1200 м
[Sc Ac trans]
+13.3 -1.4 36 +11 +12 1020.8 1011.5
12 20.05 С 5-7
{12}
10 км 9/8 1200 м
[Sc Ac trans]
+15.2 -0.5 34 +14 +15 1020.1 1010.8
15 20.05 СВ 4-6
{11}
10 км 6/4 1000 м
[Sc Ac trans]
+15.1 -0.6 34 +14 +15 1019.4 1010.1 +16.6
18 20.05 СЗ 1-2
{6}
10 км 3/0
[Ac trans]
+8.6 +2.4 65 +8 +8 1020.4 1010.9
21 20.05 штиль 0
{2}
10 км 1/0
[Ac trans]
+3.9 +1.3 83 +3 +3 1021.0 1011.3
00 21.05 штиль 0-2
{2}
10 км ясно +2.1 +0.6 90 +1 +1 1021.6 1011.9
03 21.05 штиль 0-1
{2}
10 км 4/0
[Ci fib]
+8.5 +3.8 72 +8 +10 1021.8 1012.3 +1.5
06 21.05 СЗ 4-6
{6}
10 км 9/0
[Ci fib]
+15.4 -1.6 31 +15 +20 1021.5 1012.2
09 21.05 С 5-7
{9}
10 км 9/0
[Ac trans Ci fib]
+18.4 -3.1 23 +18 +24 1020.3 1011.1
12 21.05 СЗ 4-7
{9}
10 км 9/4 1000 м
[Sc Ac trans Ci fib]
+19.9 -1.8 23 +20 +22 1018.9 1009.8
15 21.05 З 3-5
{9}
10 км 9/4 1000 м
[Sc Ac trans]
+17.8 +1.8 34 +18 +18 1017.9 1008.7 +20.5

 

Местоположение метеостанции Нижний Новгород аэропорт (Нижегородская область, Россия): широта 56.22 долгота 43.77 высота над уровнем моря 77 м.

В архиве по умолчанию представлена погода в Нижнем Новгороде аэропорт за последнюю неделю. Архивные данные за месяц целиком и за предыдущие месяцы, начиная с января 2011 года, Вы можете получить, выбрав интересующий диапазон дат из раскрывающегося списка и нажав кнопку "Ввод!".


*Определитесь, кто Вы:
робот инопланетянин человек

Внимание! Время в таблицах - всемирное. Для получения местного времени необходимо прибавить поправку, которая равна 3 ч.

Смотрите также архив погоды в соседних городах и на ближайших метеорологических станциях:

Погода в Нижнем Новгороде (Нижегородская область, Россия) (15 км)
Погода в Балахне (Нижегородская область, Россия) (45 км)
Погода в Дальнем Константиново (Нижегородская область, Россия) (51 км)
Погода в Павлово (Нижегородская область, Россия) (55 км)
Погода в Волжской ГМО (Нижегородская область, Россия) (55 км)
Погода в Семенове (Нижегородская область, Россия) (73 км)
Погода в Лысково (Нижегородская область, Россия) (82 км)
Погода в Арзамасе (Нижегородская область, Россия) (95 км)
Погода в Вязниках (Владимирская область, Россия) (99 км)
Погода в Воскресенском (Нижегородская область, Россия) (121 км)

Пояснения к столбцам:

Ветер - указаны скорость ветра в м/с - средняя за 10 мин, порывы в срок и между сроками (в фигурных скобках) и направление, откуда дует ветер: С - северный, СВ - северо-восточный, В - восточный, ЮВ - юго-восточный, Ю - южный, ЮЗ - юго-западный, З - западный, СЗ - северо-западный.
Видимость - горизонтальная дальность видимости в метрах или километрах. При видимости от 1 до 10 км при отсутствии осадков обычно наблюдается дымка, при ухудшении видимости до 1 км и менее - туман. В сухую погоду видимость может ухудшаться дымом, пылью или мглою.
Явления - указаны атмосферные явления, наблюдавшиеся в срок или в последний час перед сроком; фигурными скобками обозначены явления, наблюдавшиеся между сроками (за 1-3 часа до срока); квадратными скобками обозначены град или гололедные отложения с указанием их диаметра в мм.
Облачность - указаны через наклонную черту общая и нижняя облачность в баллах и высота нижней границы облаков в метрах; квадратными скобками обозначены формы облаков: Ci - перистые, Cs - перисто-слоистые, Cc - перисто-кучевые, Ac - высококучевые, As - высокослоистые, Sc - слоисто-кучевые, Ns - слоисто-дождевые, Cu - кучевые, Cb - кучево-дождевые. Подробнее классификацию облаков см. в Атласе облаков (PDF).
T - Температура воздуха - температура, измеренная на высоте 2 м над землей.
Td - Температура точки росы - температура, при понижении до которой содержащийся в воздухе водяной пар достигнет насыщения.
f - Относительная влажность воздуха - влажноcть воздуха, измеренная на высоте 2 м над землей.
Te - Эффективная температура - температура, которую ощущает одетый по сезону человек в тени. Характеристика душности погоды. При расчете учитывается влияние влажности воздуха и скорости ветра на теплоощущения человека.
Tes - Эффективная температура на солнце - температура, которую ощущает человек, с поправкой на солнечный нагрев. Характеристика знойности погоды. Зависит от высоты солнца над горизонтом, облачности и скорости ветра. Ночью, в пасмурную погоду, а также при ветре 12 м/с и более поправка равна нулю.
P - Атмосферное давление - приведенное к уровню моря атмосферное давление.
Po - Атмосферное давление - измеренное на уровне метеостанции атмосферное давление.
Tmin - Минимальная температура - минимум температуры воздуха на высоте 2 м над землей.
Tmax - Максимальная температура - максимум температуры воздуха на высоте 2 м над землей.
R - Количество осадков - Количество выпавших осадков за период времени, мм. При наведении курсора мыши на число - период времени, за который выпало указанное количество осадков.
R24 - Количество осадков - Количество выпавших осадков за 24 часа, мм.
S - Снежный покров - Высота снежного покрова, см. При наведении курсора мыши на число - состояние снежного покрова и степень покрытия местности в баллах.